DW7572 Weather Reports


time (UTC)temp
F
wind
direction
speed
knots
gust
knots
rain 1hr
in
rain 24hr
in
rain mn
in
humidity
%
barometer
mb
20260506090016 35 293 3.5 4.3 0.00 0.00 0.00 71 1015.4
20260506083016 35 293 3.5 4.3 0.00 0.00 0.00 70 1015.4
20260506073016 36 315 2.6 4.3 0.00 0.00 0.00 67 1015.2
20260506043017 38 315 4.3 7.0 0.00 0.00 0.00 61 1014.7
20260506040017 40 338 6.1 8.7 0.00 0.00 0.00 58 1014.5
20260506033017 41 338 6.1 8.7 0.00 0.00 0.00 57 1014.2
20260506030037 42 338 7.0 13.0 0.00 0.00 0.00 54 1014.3
20260506023016 44 338 9.6 13.9 0.00 0.00 0.00 51 1014.0
20260506020016 45 338 12.2 17.4 0.00 0.00 0.00 48 1013.3
20260506013037 47 315 13.9 19.1 0.00 0.00 0.00 45 1012.8
20260506010016 48 338 15.6 21.7 0.00 0.00 0.00 44 1012.5
20260506003017 49 338 14.8 20.0 0.00 0.00 0.00 42 1012.2
20260506000015 50 315 14.8 22.6 0.00 0.00 0.00 41 1012.1
20260505233016 51 315 15.6 22.6 0.00 0.00 0.00 38 1012.0
20260505230016 51 315 15.6 23.5 0.00 0.00 0.00 37 1011.6
20260505223015 52 315 15.6 23.5 0.00 0.00 0.00 37 1011.6
20260505220016 52 315 14.8 23.5 0.00 0.00 0.00 37 1011.7
20260505213017 52 315 14.8 24.3 0.00 0.00 0.00 37 1011.7
20260505210018 52 315 11.3 20.9 0.00 0.00 0.00 37 1011.9
20260505203018 51 315 11.3 18.2 0.00 0.00 0.00 38 1012.1
20260505200017 51 315 11.3 19.1 0.00 0.00 0.00 39 1012.2
20260505193017 51 315 12.2 21.7 0.00 0.00 0.00 39 1012.3
20260505190038 50 293 8.7 17.4 0.00 0.00 0.00 40 1012.2
20260505183038 50 315 8.7 16.5 0.00 0.00 0.00 44 1012.2
20260505180038 49 315 11.3 17.4 0.00 0.00 0.00 43 1012.3
20260505173017 48 315 11.3 18.2 0.00 0.00 0.00 44 1012.2
20260505170017 48 315 8.7 15.6 0.00 0.00 0.00 47 1012.1
20260505163017 48 315 8.7 14.8 0.00 0.00 0.00 49 1012.2
20260505153016 47 338 7.0 14.8 0.00 0.00 0.00 53 1012.1
20260505123016 38 270 0.9 3.5 0.00 0.00 0.00 76 1010.3
20260505120016 35 270 0.9 2.6 0.00 0.00 0.00 78 1009.6
20260505113016 34 270 0.9 2.6 0.00 0.00 0.00 79 1009.1
20260505100016 36 293 3.5 6.1 0.00 0.00 0.00 74 1008.5
20260505093017 35 293 0.9 5.2 0.00 0.00 0.00 76 1008.1